SAOCOM 1B

Last updated on Wed Nov 05 2025 00:02:15 GMT+0000 (Coordinated Universal Time)

1 46265U 20059A 25308.62723764 .00000570 00000+0 78137-4 0 9995 2 46265 97.8859 132.7038 0001456 89.3993 270.7387 14.82149471280221
UTC large
Height (km)
Speed (km/s)
/
Latitude / Longitude
Inclination (degrees)
Orbital Period (minutes)
Azimuth
Elevation
Range (km)
Doppler Factor

Next 0 passes for location: London (51.5072 / 0.1276)

Sorry there are no passes over London.